Time,TemperatureF,DewpointF,PressureIn,WindDirection,WindDirectionDegrees,WindSpeedMPH,WindSpeedGustMPH,Humidity,HourlyPrecipIn,Conditions,Clouds,dailyrainin,SoftwareType,DateUTC
2013-01-26 00:01:00,46.6,31.1,30.11,WSW,256,5.0,5.0,40,0.05,,,0.47,meteohub,2013-01-26 08:01:00,
2013-01-26 00:06:00,46.8,31.1,30.11,NW,306,8.0,8.0,40,0.04,,,0.47,meteohub,2013-01-26 08:06:00,
2013-01-26 00:11:00,46.6,31.1,30.11,West,280,5.0,12.0,40,0.05,,,0.48,meteohub,2013-01-26 08:11:00,
2013-01-26 00:16:00,46.6,31.1,30.11,West,263,5.0,12.0,40,0.04,,,0.48,meteohub,2013-01-26 08:16:00,
2013-01-26 00:22:00,46.6,31.1,30.11,WSW,240,3.0,12.0,40,0.04,,,0.48,meteohub,2013-01-26 08:22:00,
2013-01-26 00:27:00,46.6,31.1,30.10,SW,236,3.0,9.0,40,0.04,,,0.49,meteohub,2013-01-26 08:27:00,
2013-01-26 00:32:00,46.6,31.1,30.10,NW,324,3.0,9.0,40,0.05,,,0.50,meteohub,2013-01-26 08:32:00,
2013-01-26 00:37:00,46.6,31.1,30.10,West,260,5.0,9.0,40,0.05,,,0.51,meteohub,2013-01-26 08:37:00,
2013-01-26 00:42:00,46.4,31.1,30.10,ESE,106,2.0,10.0,40,0.05,,,0.51,meteohub,2013-01-26 08:42:00,
2013-01-26 00:47:00,46.4,31.1,30.10,WNW,294,2.0,10.0,40,0.06,,,0.52,meteohub,2013-01-26 08:47:00,
2013-01-26 00:52:00,46.4,31.1,30.10,WSW,243,5.0,9.0,40,0.07,,,0.53,meteohub,2013-01-26 08:52:00,
2013-01-26 00:57:00,46.4,31.1,30.09,WSW,250,5.0,9.0,40,0.07,,,0.54,meteohub,2013-01-26 08:57:00,
2013-01-26 01:02:00,46.6,31.1,30.09,WSW,253,5.0,7.0,40,0.07,,,0.54,meteohub,2013-01-26 09:02:00,
2013-01-26 01:07:00,46.4,31.1,30.09,West,269,3.0,7.0,40,0.08,,,0.55,meteohub,2013-01-26 09:07:00,
2013-01-26 01:12:00,46.2,31.1,30.09,WNW,288,4.0,7.0,40,0.07,,,0.55,meteohub,2013-01-26 09:12:00,
2013-01-26 01:17:00,46.2,31.1,30.09,WSW,255,1.0,8.0,40,0.08,,,0.56,meteohub,2013-01-26 09:17:00,
2013-01-26 01:22:00,46.2,31.1,30.09,WSW,257,5.0,8.0,40,0.09,,,0.57,meteohub,2013-01-26 09:22:00,
2013-01-26 01:27:00,46.2,31.1,30.09,WSW,250,1.0,7.0,40,0.07,,,0.57,meteohub,2013-01-26 09:27:00,
2013-01-26 01:33:00,46.2,31.1,30.08,WSW,252,1.0,7.0,40,0.08,,,0.58,meteohub,2013-01-26 09:33:00,
2013-01-26 01:38:00,46.0,31.1,30.08,WSW,243,0.0,7.0,40,0.07,,,0.58,meteohub,2013-01-26 09:38:00,
2013-01-26 01:43:00,45.9,31.1,30.07,WSW,243,0.0,7.0,40,0.06,,,0.58,meteohub,2013-01-26 09:43:00,
2013-01-26 01:48:00,45.9,31.1,30.08,WSW,243,1.0,5.0,40,0.07,,,0.59,meteohub,2013-01-26 09:48:00,
2013-01-26 01:53:00,45.9,31.1,30.07,WSW,243,1.0,4.0,40,0.06,,,0.59,meteohub,2013-01-26 09:53:00,
2013-01-26 01:58:00,45.5,31.1,30.06,West,274,2.0,3.0,40,0.06,,,0.60,meteohub,2013-01-26 09:58:00,
2013-01-26 02:04:00,45.3,31.1,30.06,West,259,0.0,3.0,40,0.06,,,0.60,meteohub,2013-01-26 10:04:00,
2013-01-26 02:09:00,45.3,31.1,30.06,West,259,0.0,4.0,40,0.05,,,0.60,meteohub,2013-01-26 10:09:00,
2013-01-26 02:15:00,45.3,31.1,30.06,WSW,258,0.0,4.0,40,0.05,,,0.61,meteohub,2013-01-26 10:15:00,
2013-01-26 02:20:00,44.8,31.1,30.06,WNW,287,0.0,2.0,40,0.05,,,0.62,meteohub,2013-01-26 10:20:00,
2013-01-26 02:25:00,44.2,31.1,30.05,NW,324,2.0,3.0,40,0.04,,,0.62,meteohub,2013-01-26 10:25:00,
2013-01-26 02:30:00,44.2,31.1,30.05,North,8,4.0,4.0,40,0.05,,,0.63,meteohub,2013-01-26 10:30:00,
2013-01-26 02:36:00,44.2,31.1,30.05,NE,35,2.0,5.0,40,0.05,,,0.63,meteohub,2013-01-26 10:36:00,
2013-01-26 02:41:00,44.2,31.1,30.04,NE,35,2.0,5.0,40,0.04,,,0.63,meteohub,2013-01-26 10:41:00,
2013-01-26 02:46:00,44.2,31.1,30.04,NE,36,2.0,5.0,40,0.04,,,0.63,meteohub,2013-01-26 10:46:00,
2013-01-26 02:51:00,44.2,31.1,30.04,NE,35,2.0,4.0,40,0.04,,,0.63,meteohub,2013-01-26 10:51:00,
2013-01-26 02:57:00,44.2,31.1,30.04,NE,35,3.0,4.0,40,0.03,,,0.63,meteohub,2013-01-26 10:57:00,
2013-01-26 03:02:00,44.2,31.1,30.04,NE,35,2.0,4.0,40,0.03,,,0.63,meteohub,2013-01-26 11:02:00,
2013-01-26 03:07:00,44.2,31.1,30.03,NE,35,2.0,4.0,40,0.02,,,0.63,meteohub,2013-01-26 11:07:00,
2013-01-26 03:13:00,44.2,31.1,30.03,NE,35,1.0,4.0,40,0.02,,,0.63,meteohub,2013-01-26 11:13:00,
2013-01-26 03:18:00,44.2,31.1,30.03,NE,36,0.0,4.0,40,0.02,,,0.63,meteohub,2013-01-26 11:18:00,
2013-01-26 03:23:00,44.2,31.1,30.03,NE,36,1.0,4.0,40,0.02,,,0.64,meteohub,2013-01-26 11:23:00,
2013-01-26 03:29:00,44.4,31.1,30.03,West,273,4.0,4.0,40,0.02,,,0.64,meteohub,2013-01-26 11:29:00,
2013-01-26 03:34:00,44.4,31.1,30.02,SW,233,5.0,5.0,40,0.01,,,0.64,meteohub,2013-01-26 11:34:00,
2013-01-26 03:40:00,44.4,31.1,30.03,NNW,340,6.0,8.0,40,0.01,,,0.64,meteohub,2013-01-26 11:40:00,
2013-01-26 03:45:00,44.1,31.1,30.02,West,260,5.0,14.0,40,0.01,,,0.64,meteohub,2013-01-26 11:45:00,
2013-01-26 03:51:00,44.1,31.1,30.02,SW,233,15.0,15.0,40,0.01,,,0.64,meteohub,2013-01-26 11:51:00,
2013-01-26 03:56:00,44.4,31.8,30.02,NW,315,10.0,15.0,41,0.01,,,0.64,meteohub,2013-01-26 11:56:00,
2013-01-26 04:02:00,44.6,31.8,30.02,SW,228,12.0,15.0,41,0.01,,,0.64,meteohub,2013-01-26 12:02:00,
2013-01-26 04:07:00,44.8,31.8,30.02,SSW,203,6.0,17.0,41,0.01,,,0.64,meteohub,2013-01-26 12:07:00,
2013-01-26 04:12:00,44.8,31.8,30.01,SW,218,4.0,17.0,41,0.01,,,0.64,meteohub,2013-01-26 12:12:00,
2013-01-26 04:17:00,44.8,31.8,30.01,North,11,4.0,17.0,41,0.01,,,0.64,meteohub,2013-01-26 12:17:00,
2013-01-26 04:22:00,45.0,31.8,30.01,NE,56,4.0,19.0,41,0.00,,,0.64,meteohub,2013-01-26 12:22:00,
2013-01-26 04:27:00,45.0,31.8,30.01,NW,314,6.0,19.0,41,0.00,,,0.64,meteohub,2013-01-26 12:27:00,
2013-01-26 04:32:00,45.0,31.6,30.01,SW,228,14.0,19.0,41,0.00,,,0.64,meteohub,2013-01-26 12:32:00,
2013-01-26 04:37:00,45.0,31.6,30.01,NNE,26,6.0,16.0,41,0.00,,,0.64,meteohub,2013-01-26 12:37:00,
2013-01-26 04:42:00,45.0,31.8,30.00,NNE,32,7.0,16.0,41,0.00,,,0.64,meteohub,2013-01-26 12:42:00,
2013-01-26 04:48:00,45.0,31.6,30.00,WSW,242,12.0,19.0,41,0.00,,,0.64,meteohub,2013-01-26 12:48:00,
2013-01-26 04:53:00,45.0,31.6,30.01,West,263,3.0,19.0,41,0.00,,,0.64,meteohub,2013-01-26 12:53:00,
2013-01-26 04:58:00,45.0,31.6,30.01,WSW,246,9.0,19.0,41,0.00,,,0.64,meteohub,2013-01-26 12:58:00,
2013-01-26 05:04:00,45.0,31.6,30.02,NE,47,4.0,15.0,41,0.00,,,0.64,meteohub,2013-01-26 13:04:00,
2013-01-26 05:09:00,44.8,31.6,30.01,NNW,328,4.0,13.0,41,0.00,,,0.64,meteohub,2013-01-26 13:09:00,
2013-01-26 05:14:00,44.8,31.6,30.01,WSW,255,4.0,13.0,41,0.00,,,0.64,meteohub,2013-01-26 13:14:00,
2013-01-26 05:20:00,44.8,31.6,30.01,NNW,332,7.0,13.0,41,0.00,,,0.64,meteohub,2013-01-26 13:20:00,
2013-01-26 05:25:00,44.8,31.6,30.01,ESE,123,4.0,13.0,41,0.00,,,0.64,meteohub,2013-01-26 13:25:00,
2013-01-26 05:31:00,44.8,31.6,30.01,West,271,4.0,14.0,41,0.00,,,0.64,meteohub,2013-01-26 13:31:00,
2013-01-26 05:36:00,44.8,31.6,30.01,WSW,242,10.0,14.0,41,0.00,,,0.64,meteohub,2013-01-26 13:36:00,
2013-01-26 05:42:00,44.8,31.6,30.01,SW,236,11.0,14.0,41,0.00,,,0.64,meteohub,2013-01-26 13:42:00,
2013-01-26 05:47:00,44.8,31.6,30.01,WSW,242,8.0,15.0,41,0.01,,,0.65,meteohub,2013-01-26 13:47:00,
2013-01-26 05:52:00,44.8,31.6,30.01,WSW,252,13.0,15.0,41,0.01,,,0.65,meteohub,2013-01-26 13:52:00,
2013-01-26 05:57:00,44.8,31.6,30.01,WNW,284,7.0,15.0,41,0.01,,,0.65,meteohub,2013-01-26 13:57:00,
2013-01-26 06:02:00,44.8,31.6,30.01,SW,219,10.0,18.0,41,0.01,,,0.65,meteohub,2013-01-26 14:02:00,
2013-01-26 06:07:00,44.8,31.6,30.01,WSW,246,6.0,18.0,41,0.01,,,0.65,meteohub,2013-01-26 14:07:00,
2013-01-26 06:12:00,44.8,31.6,30.01,WNW,285,6.0,18.0,41,0.01,,,0.65,meteohub,2013-01-26 14:12:00,
2013-01-26 06:17:00,44.8,31.6,30.01,ENE,70,5.0,13.0,41,0.01,,,0.65,meteohub,2013-01-26 14:17:00,
2013-01-26 06:22:00,44.8,31.6,30.01,WSW,244,12.0,14.0,41,0.01,,,0.65,meteohub,2013-01-26 14:22:00,
2013-01-26 06:27:00,45.0,31.6,30.02,NE,53,6.0,14.0,41,0.01,,,0.65,meteohub,2013-01-26 14:27:00,
2013-01-26 06:32:00,45.0,31.6,30.02,WSW,252,8.0,14.0,41,0.01,,,0.65,meteohub,2013-01-26 14:32:00,
2013-01-26 06:37:00,45.0,32.2,30.02,WSW,243,3.0,12.0,42,0.01,,,0.65,meteohub,2013-01-26 14:37:00,
2013-01-26 06:42:00,45.0,32.2,30.02,SSW,203,7.0,12.0,42,0.01,,,0.65,meteohub,2013-01-26 14:42:00,
2013-01-26 06:47:00,45.0,32.2,30.02,West,270,3.0,14.0,42,0.00,,,0.65,meteohub,2013-01-26 14:47:00,
2013-01-26 06:52:00,45.0,32.2,30.02,NW,319,4.0,14.0,42,0.00,,,0.65,meteohub,2013-01-26 14:52:00,
2013-01-26 06:57:00,45.0,32.2,30.02,NNE,15,6.0,14.0,42,0.00,,,0.65,meteohub,2013-01-26 14:57:00,
2013-01-26 07:03:00,45.0,32.2,30.02,SW,219,8.0,14.0,42,0.00,,,0.65,meteohub,2013-01-26 15:03:00,
2013-01-26 07:08:00,45.0,32.2,30.03,NNE,30,5.0,14.0,42,0.00,,,0.65,meteohub,2013-01-26 15:08:00,
2013-01-26 07:13:00,45.1,32.2,30.03,NW,317,4.0,14.0,42,0.00,,,0.65,meteohub,2013-01-26 15:13:00,
2013-01-26 07:19:00,45.1,32.2,30.02,SSW,210,8.0,13.0,42,0.00,,,0.65,meteohub,2013-01-26 15:19:00,
2013-01-26 07:24:00,45.1,32.2,30.02,WNW,294,8.0,12.0,42,0.00,,,0.65,meteohub,2013-01-26 15:24:00,
2013-01-26 07:29:00,45.3,32.2,30.02,WSW,245,12.0,15.0,42,0.00,,,0.65,meteohub,2013-01-26 15:29:00,
2013-01-26 07:35:00,45.3,32.2,30.03,ENE,68,5.0,15.0,42,0.00,,,0.65,meteohub,2013-01-26 15:35:00,
2013-01-26 07:40:00,45.1,32.2,30.03,WNW,294,5.0,15.0,42,0.00,,,0.65,meteohub,2013-01-26 15:40:00,
2013-01-26 07:45:00,45.1,32.2,30.03,West,278,9.0,16.0,42,0.00,,,0.65,meteohub,2013-01-26 15:45:00,
2013-01-26 07:50:00,45.1,32.2,30.04,WSW,243,16.0,16.0,42,0.00,,,0.65,meteohub,2013-01-26 15:50:00,
2013-01-26 07:56:00,45.1,32.2,30.04,WSW,253,8.0,17.0,42,0.00,,,0.65,meteohub,2013-01-26 15:56:00,
2013-01-26 08:01:00,45.1,32.2,30.04,West,270,9.0,17.0,42,0.00,,,0.65,meteohub,2013-01-26 16:01:00,
2013-01-26 08:06:00,45.3,32.2,30.04,NW,312,6.0,17.0,42,0.00,,,0.65,meteohub,2013-01-26 16:06:00,
2013-01-26 08:11:00,45.1,32.2,30.04,SW,229,11.0,14.0,42,0.01,,,0.66,meteohub,2013-01-26 16:11:00,
2013-01-26 08:16:00,45.3,32.2,30.04,WSW,242,8.0,14.0,42,0.01,,,0.66,meteohub,2013-01-26 16:16:00,
2013-01-26 08:22:00,45.3,32.2,30.04,West,273,8.0,14.0,42,0.01,,,0.66,meteohub,2013-01-26 16:22:00,
2013-01-26 08:27:00,45.5,32.2,30.04,WSW,249,4.0,13.0,42,0.01,,,0.66,meteohub,2013-01-26 16:27:00,
2013-01-26 08:32:00,45.5,32.2,30.04,NE,42,4.0,13.0,42,0.01,,,0.66,meteohub,2013-01-26 16:32:00,
2013-01-26 08:37:00,45.7,32.2,30.04,North,4,8.0,12.0,42,0.01,,,0.66,meteohub,2013-01-26 16:37:00,
2013-01-26 08:42:00,45.7,32.2,30.04,NNE,13,2.0,12.0,42,0.01,,,0.66,meteohub,2013-01-26 16:42:00,
2013-01-26 08:47:00,45.5,32.2,30.04,SE,132,6.0,12.0,42,0.01,,,0.66,meteohub,2013-01-26 16:47:00,
2013-01-26 08:53:00,45.5,32.2,30.04,NW,323,5.0,13.0,42,0.01,,,0.66,meteohub,2013-01-26 16:53:00,
2013-01-26 08:58:00,45.5,32.2,30.04,ENE,77,4.0,13.0,42,0.01,,,0.66,meteohub,2013-01-26 16:58:00,
2013-01-26 09:03:00,45.7,32.2,30.04,SSE,158,5.0,16.0,42,0.01,,,0.66,meteohub,2013-01-26 17:03:00,
2013-01-26 09:09:00,45.7,32.2,30.05,SW,231,8.0,16.0,42,0.01,,,0.66,meteohub,2013-01-26 17:09:00,
2013-01-26 09:14:00,45.7,32.2,30.05,West,273,7.0,16.0,42,0.00,,,0.66,meteohub,2013-01-26 17:14:00,
2013-01-26 09:20:00,45.5,32.2,30.05,SW,225,9.0,19.0,42,0.00,,,0.66,meteohub,2013-01-26 17:20:00,
2013-01-26 09:25:00,45.5,32.2,30.05,WSW,252,12.0,19.0,42,0.00,,,0.66,meteohub,2013-01-26 17:25:00,
2013-01-26 09:30:00,45.3,32.2,30.05,WNW,302,6.0,17.0,42,0.00,,,0.66,meteohub,2013-01-26 17:30:00,
2013-01-26 09:35:00,45.5,32.2,30.05,NNW,329,7.0,17.0,42,0.00,,,0.66,meteohub,2013-01-26 17:35:00,
2013-01-26 09:40:00,45.7,32.7,30.05,WNW,298,13.0,17.0,43,0.00,,,0.66,meteohub,2013-01-26 17:40:00,
2013-01-26 09:46:00,46.0,32.9,30.06,NE,49,12.0,19.0,43,0.00,,,0.66,meteohub,2013-01-26 17:46:00,
2013-01-26 09:51:00,46.2,32.7,30.06,NNE,27,13.0,19.0,43,0.00,,,0.66,meteohub,2013-01-26 17:51:00,
2013-01-26 09:56:00,45.9,32.9,30.06,NE,47,10.0,20.0,43,0.00,,,0.66,meteohub,2013-01-26 17:56:00,
2013-01-26 10:01:00,46.0,32.7,30.06,WSW,258,11.0,20.0,43,0.00,,,0.66,meteohub,2013-01-26 18:01:00,
2013-01-26 10:07:00,46.0,32.9,30.06,WNW,295,10.0,20.0,43,0.00,,,0.66,meteohub,2013-01-26 18:07:00,
2013-01-26 10:12:00,46.0,32.9,30.06,WNW,287,9.0,17.0,43,0.00,,,0.66,meteohub,2013-01-26 18:12:00,
2013-01-26 10:17:00,46.0,32.9,30.06,NW,307,6.0,17.0,43,0.00,,,0.66,meteohub,2013-01-26 18:17:00,
2013-01-26 10:22:00,46.6,32.9,30.06,SSW,211,8.0,18.0,43,0.00,,,0.66,meteohub,2013-01-26 18:22:00,
2013-01-26 10:27:00,46.6,32.9,30.06,WSW,242,20.0,20.0,43,0.00,,,0.66,meteohub,2013-01-26 18:27:00,
2013-01-26 10:32:00,46.4,32.9,30.06,SSW,212,14.0,23.0,43,0.00,,,0.66,meteohub,2013-01-26 18:32:00,
2013-01-26 10:37:00,46.6,32.9,30.05,East,91,12.0,23.0,43,0.00,,,0.66,meteohub,2013-01-26 18:37:00,
2013-01-26 10:42:00,46.8,32.9,30.05,North,350,10.0,26.0,43,0.00,,,0.66,meteohub,2013-01-26 18:42:00,
2013-01-26 10:47:00,46.8,32.9,30.05,North,11,8.0,26.0,43,0.00,,,0.66,meteohub,2013-01-26 18:47:00,
2013-01-26 10:52:00,46.8,32.9,30.05,NE,45,8.0,26.0,43,0.00,,,0.66,meteohub,2013-01-26 18:52:00,
2013-01-26 10:57:00,46.9,32.9,30.05,NNW,347,6.0,19.0,43,0.00,,,0.66,meteohub,2013-01-26 18:57:00,
2013-01-26 11:02:00,46.9,32.9,30.05,WSW,256,17.0,19.0,43,0.00,,,0.66,meteohub,2013-01-26 19:02:00,
2013-01-26 11:08:00,46.9,32.9,30.05,WSW,243,9.0,18.0,43,0.00,,,0.66,meteohub,2013-01-26 19:08:00,
2013-01-26 11:13:00,46.9,32.9,30.05,WNW,287,8.0,18.0,43,0.00,,,0.66,meteohub,2013-01-26 19:13:00,
2013-01-26 11:18:00,46.9,33.1,30.04,West,281,8.0,18.0,43,0.00,,,0.66,meteohub,2013-01-26 19:18:00,
2013-01-26 11:23:00,47.1,33.1,30.04,ENE,65,6.0,19.0,43,0.00,,,0.66,meteohub,2013-01-26 19:23:00,
2013-01-26 11:29:00,47.1,33.1,30.04,West,270,10.0,25.0,43,0.00,,,0.66,meteohub,2013-01-26 19:29:00,
2013-01-26 11:34:00,46.9,33.1,30.04,WNW,284,10.0,25.0,43,0.00,,,0.66,meteohub,2013-01-26 19:34:00,
2013-01-26 11:40:00,46.8,33.1,30.04,West,269,9.0,25.0,43,0.00,,,0.66,meteohub,2013-01-26 19:40:00,
2013-01-26 11:45:00,46.8,33.1,30.04,NW,323,6.0,26.0,43,0.00,,,0.66,meteohub,2013-01-26 19:45:00,
2013-01-26 11:50:00,46.9,33.1,30.04,NNW,333,8.0,26.0,43,0.00,,,0.66,meteohub,2013-01-26 19:50:00,
2013-01-26 11:55:00,47.3,33.1,30.04,WNW,295,5.0,26.0,43,0.00,,,0.66,meteohub,2013-01-26 19:55:00,
2013-01-26 12:01:00,47.1,33.1,30.03,West,281,9.0,19.0,43,0.00,,,0.66,meteohub,2013-01-26 20:01:00,
2013-01-26 12:06:00,46.9,33.1,30.03,WSW,238,21.0,22.0,43,0.00,,,0.66,meteohub,2013-01-26 20:06:00,
2013-01-26 12:11:00,47.5,33.1,30.03,SW,225,8.0,22.0,43,0.00,,,0.66,meteohub,2013-01-26 20:11:00,
2013-01-26 12:16:00,47.5,33.3,30.03,NW,324,6.0,22.0,43,0.00,,,0.66,meteohub,2013-01-26 20:16:00,
2013-01-26 12:22:00,47.3,33.8,30.03,NE,36,10.0,21.0,44,0.00,,,0.66,meteohub,2013-01-26 20:22:00,
2013-01-26 12:27:00,47.5,33.8,30.03,WSW,243,8.0,21.0,44,0.00,,,0.66,meteohub,2013-01-26 20:27:00,
2013-01-26 12:32:00,47.1,33.8,30.03,NE,39,7.0,21.0,44,0.00,,,0.66,meteohub,2013-01-26 20:32:00,
2013-01-26 12:37:00,47.1,33.8,30.02,NNW,339,11.0,17.0,44,0.00,,,0.66,meteohub,2013-01-26 20:37:00,
2013-01-26 12:42:00,47.1,34.0,30.02,SSW,199,12.0,17.0,44,0.00,,,0.66,meteohub,2013-01-26 20:42:00,
2013-01-26 12:47:00,47.1,34.0,30.02,South,181,8.0,20.0,44,0.00,,,0.66,meteohub,2013-01-26 20:47:00,
2013-01-26 12:52:00,47.1,34.0,30.02,North,352,12.0,21.0,44,0.00,,,0.66,meteohub,2013-01-26 20:52:00,
2013-01-26 12:57:00,46.9,34.0,30.02,North,352,8.0,21.0,44,0.00,,,0.66,meteohub,2013-01-26 20:57:00,
2013-01-26 13:02:00,47.3,34.0,30.02,NE,40,7.0,20.0,44,0.00,,,0.66,meteohub,2013-01-26 21:02:00,
2013-01-26 13:07:00,47.1,34.0,30.01,North,1,11.0,18.0,44,0.00,,,0.66,meteohub,2013-01-26 21:07:00,
2013-01-26 13:12:00,46.8,34.0,30.01,West,280,9.0,20.0,44,0.00,,,0.66,meteohub,2013-01-26 21:12:00,
2013-01-26 13:17:00,46.8,34.0,30.01,SW,231,16.0,20.0,44,0.00,,,0.66,meteohub,2013-01-26 21:17:00,
2013-01-26 13:23:00,46.6,34.0,30.01,WSW,238,21.0,23.0,44,0.00,,,0.66,meteohub,2013-01-26 21:23:00,
2013-01-26 13:28:00,46.4,34.0,30.01,West,266,14.0,26.0,44,0.01,,,0.67,meteohub,2013-01-26 21:28:00,
2013-01-26 13:33:00,46.2,34.0,30.01,SW,236,18.0,26.0,44,0.01,,,0.67,meteohub,2013-01-26 21:33:00,
2013-01-26 13:38:00,46.0,34.0,30.01,West,267,15.0,26.0,44,0.01,,,0.67,meteohub,2013-01-26 21:38:00,
2013-01-26 13:43:00,46.0,34.2,30.01,SSW,202,13.0,26.0,44,0.01,,,0.67,meteohub,2013-01-26 21:43:00,
2013-01-26 13:49:00,46.0,34.2,30.01,NW,319,13.0,27.0,44,0.01,,,0.67,meteohub,2013-01-26 21:49:00,
2013-01-26 13:54:00,46.2,34.2,30.01,West,278,9.0,28.0,44,0.01,,,0.67,meteohub,2013-01-26 21:54:00,
2013-01-26 13:59:00,46.2,34.2,30.01,WNW,297,9.0,28.0,44,0.01,,,0.67,meteohub,2013-01-26 21:59:00,
2013-01-26 14:04:00,46.2,34.2,30.01,West,264,6.0,23.0,44,0.01,,,0.67,meteohub,2013-01-26 22:04:00,
2013-01-26 14:09:00,46.0,34.2,30.01,SW,235,22.0,23.0,44,0.01,,,0.67,meteohub,2013-01-26 22:09:00,
2013-01-26 14:14:00,46.0,34.2,30.01,North,11,13.0,23.0,44,0.01,,,0.67,meteohub,2013-01-26 22:14:00,
2013-01-26 14:19:00,46.0,34.2,30.01,NNW,338,13.0,23.0,44,0.01,,,0.67,meteohub,2013-01-26 22:19:00,
2013-01-26 14:24:00,46.0,34.2,30.01,WNW,284,14.0,23.0,44,0.00,,,0.67,meteohub,2013-01-26 22:24:00,
2013-01-26 14:30:00,46.2,34.2,30.01,WNW,292,6.0,24.0,44,0.00,,,0.67,meteohub,2013-01-26 22:30:00,
2013-01-26 14:35:00,46.2,34.2,30.02,West,262,11.0,25.0,44,0.00,,,0.67,meteohub,2013-01-26 22:35:00,
2013-01-26 14:40:00,46.2,34.7,30.02,West,280,10.0,26.0,45,0.00,,,0.67,meteohub,2013-01-26 22:40:00,
2013-01-26 14:46:00,46.2,34.7,30.01,WSW,249,25.0,26.0,45,0.00,,,0.67,meteohub,2013-01-26 22:46:00,
2013-01-26 14:51:00,46.2,34.7,30.01,South,174,10.0,25.0,45,0.00,,,0.67,meteohub,2013-01-26 22:51:00,
2013-01-26 14:57:00,46.2,34.7,30.02,WNW,294,8.0,25.0,45,0.00,,,0.67,meteohub,2013-01-26 22:57:00,
2013-01-26 15:02:00,46.4,34.7,30.02,North,0,12.0,25.0,45,0.00,,,0.67,meteohub,2013-01-26 23:02:00,
2013-01-26 15:07:00,46.0,34.9,30.02,ENE,65,14.0,23.0,45,0.00,,,0.67,meteohub,2013-01-26 23:07:00,
2013-01-26 15:12:00,46.2,34.9,30.02,WSW,242,15.0,21.0,45,0.00,,,0.67,meteohub,2013-01-26 23:12:00,
2013-01-26 15:17:00,46.2,34.9,30.02,WSW,240,14.0,21.0,45,0.00,,,0.67,meteohub,2013-01-26 23:17:00,
2013-01-26 15:23:00,46.2,34.9,30.01,SSW,197,10.0,21.0,45,0.01,,,0.68,meteohub,2013-01-26 23:23:00,
2013-01-26 15:28:00,46.0,34.9,30.01,NE,56,9.0,23.0,45,0.01,,,0.68,meteohub,2013-01-26 23:28:00,
2013-01-26 15:33:00,46.0,34.9,30.01,WSW,243,16.0,24.0,45,0.01,,,0.68,meteohub,2013-01-26 23:33:00,
2013-01-26 15:38:00,46.0,34.9,30.01,WSW,245,18.0,24.0,45,0.01,,,0.68,meteohub,2013-01-26 23:38:00,
2013-01-26 15:44:00,46.0,34.9,30.02,SSW,194,12.0,24.0,45,0.01,,,0.68,meteohub,2013-01-26 23:44:00,
2013-01-26 15:49:00,46.0,34.9,30.01,WNW,287,13.0,24.0,45,0.02,,,0.69,meteohub,2013-01-26 23:49:00,
2013-01-26 15:54:00,46.0,34.9,30.01,NNW,336,8.0,26.0,45,0.02,,,0.69,meteohub,2013-01-26 23:54:00,
2013-01-26 15:59:00,46.0,34.9,30.01,NNW,344,12.0,26.0,45,0.02,,,0.69,meteohub,2013-01-26 23:59:00,
2013-01-26 16:05:00,46.0,34.9,30.01,ENE,68,13.0,26.0,45,0.03,,,0.00,meteohub,2013-01-27 00:05:00,
2013-01-26 16:10:00,46.0,34.9,30.01,SW,222,6.0,24.0,45,0.03,,,0.00,meteohub,2013-01-27 00:10:00,
2013-01-26 16:15:00,46.0,34.9,30.01,WNW,299,6.0,24.0,45,0.02,,,0.00,meteohub,2013-01-27 00:15:00,
2013-01-26 16:21:00,45.7,34.9,30.01,SSE,162,8.0,21.0,45,0.02,,,0.00,meteohub,2013-01-27 00:21:00,
2013-01-26 16:26:00,45.5,34.9,30.01,NNE,33,10.0,21.0,45,0.02,,,0.00,meteohub,2013-01-27 00:26:00,
2013-01-26 16:32:00,45.3,34.9,30.01,West,263,20.0,21.0,45,0.02,,,0.00,meteohub,2013-01-27 00:32:00,
2013-01-26 16:37:00,45.3,34.9,30.01,NNE,23,9.0,23.0,45,0.03,,,0.01,meteohub,2013-01-27 00:37:00,
2013-01-26 16:42:00,45.1,34.9,30.01,NE,46,13.0,23.0,45,0.03,,,0.01,meteohub,2013-01-27 00:42:00,
2013-01-26 16:47:00,45.1,34.9,30.01,WSW,258,21.0,24.0,45,0.02,,,0.01,meteohub,2013-01-27 00:47:00,
2013-01-26 16:52:00,45.0,35.4,30.01,North,11,11.0,27.0,46,0.02,,,0.01,meteohub,2013-01-27 00:52:00,
2013-01-26 16:58:00,44.8,35.4,30.01,SSW,211,10.0,27.0,46,0.02,,,0.01,meteohub,2013-01-27 00:58:00,
2013-01-26 17:03:00,44.6,35.4,30.02,NW,305,14.0,27.0,46,0.01,,,0.01,meteohub,2013-01-27 01:03:00,
2013-01-26 17:08:00,44.4,35.4,30.02,West,273,11.0,26.0,46,0.01,,,0.01,meteohub,2013-01-27 01:08:00,
2013-01-26 17:14:00,44.4,35.4,30.03,ENE,65,15.0,26.0,46,0.01,,,0.01,meteohub,2013-01-27 01:14:00,
2013-01-26 17:19:00,44.6,35.4,30.03,WNW,302,15.0,26.0,46,0.01,,,0.01,meteohub,2013-01-27 01:19:00,
2013-01-26 17:25:00,44.6,35.4,30.03,NW,324,9.0,26.0,46,0.01,,,0.01,meteohub,2013-01-27 01:25:00,
2013-01-26 17:30:00,44.4,35.4,30.04,NE,43,12.0,25.0,46,0.01,,,0.01,meteohub,2013-01-27 01:30:00,
2013-01-26 17:36:00,44.6,35.4,30.05,WNW,298,10.0,23.0,46,0.00,,,0.01,meteohub,2013-01-27 01:36:00,
2013-01-26 17:41:00,44.4,35.4,30.05,NE,37,11.0,23.0,46,0.00,,,0.01,meteohub,2013-01-27 01:41:00,
2013-01-26 17:46:00,44.6,35.4,30.05,ESE,117,8.0,23.0,46,0.00,,,0.01,meteohub,2013-01-27 01:46:00,
2013-01-26 17:51:00,44.4,35.4,30.05,NNE,15,8.0,19.0,46,0.00,,,0.01,meteohub,2013-01-27 01:51:00,
2013-01-26 17:56:00,44.4,35.4,30.05,NW,324,12.0,23.0,46,0.00,,,0.01,meteohub,2013-01-27 01:56:00,
2013-01-26 18:01:00,44.4,35.4,30.05,NE,56,6.0,23.0,46,0.00,,,0.01,meteohub,2013-01-27 02:01:00,
2013-01-26 18:06:00,44.6,35.4,30.05,West,278,5.0,23.0,46,0.00,,,0.01,meteohub,2013-01-27 02:06:00,
2013-01-26 18:11:00,44.6,35.4,30.06,East,82,12.0,21.0,46,0.00,,,0.01,meteohub,2013-01-27 02:11:00,
2013-01-26 18:16:00,44.6,35.2,30.06,SW,229,8.0,19.0,46,0.00,,,0.01,meteohub,2013-01-27 02:16:00,
2013-01-26 18:21:00,44.4,35.2,30.06,North,353,11.0,22.0,46,0.00,,,0.01,meteohub,2013-01-27 02:21:00,
2013-01-26 18:26:00,44.4,35.2,30.06,West,263,7.0,22.0,46,0.00,,,0.01,meteohub,2013-01-27 02:26:00,
2013-01-26 18:31:00,44.4,35.2,30.06,NE,51,9.0,22.0,46,0.00,,,0.01,meteohub,2013-01-27 02:31:00,
2013-01-26 18:36:00,44.4,35.2,30.06,SE,124,5.0,22.0,46,0.00,,,0.01,meteohub,2013-01-27 02:36:00,
2013-01-26 18:41:00,44.4,35.2,30.07,WSW,257,4.0,18.0,46,0.01,,,0.02,meteohub,2013-01-27 02:41:00,
2013-01-26 18:46:00,44.2,35.2,30.07,NNW,328,11.0,18.0,46,0.01,,,0.02,meteohub,2013-01-27 02:46:00,
2013-01-26 18:52:00,44.2,35.2,30.06,WNW,298,12.0,18.0,46,0.01,,,0.02,meteohub,2013-01-27 02:52:00,
2013-01-26 18:57:00,44.2,35.2,30.06,West,263,6.0,18.0,46,0.01,,,0.02,meteohub,2013-01-27 02:57:00,
2013-01-26 19:02:00,44.2,35.2,30.07,NNW,332,14.0,18.0,46,0.01,,,0.02,meteohub,2013-01-27 03:02:00,
2013-01-26 19:07:00,44.2,35.2,30.07,NW,326,12.0,18.0,46,0.01,,,0.02,meteohub,2013-01-27 03:07:00,
2013-01-26 19:12:00,44.2,35.2,30.07,SW,235,19.0,21.0,46,0.01,,,0.02,meteohub,2013-01-27 03:12:00,
2013-01-26 19:17:00,44.1,35.2,30.07,NW,311,8.0,21.0,46,0.01,,,0.02,meteohub,2013-01-27 03:17:00,
2013-01-26 19:22:00,44.1,35.2,30.07,West,280,12.0,21.0,46,0.01,,,0.02,meteohub,2013-01-27 03:22:00,
2013-01-26 19:27:00,44.1,35.2,30.07,North,11,14.0,19.0,46,0.01,,,0.02,meteohub,2013-01-27 03:27:00,
2013-01-26 19:32:00,43.9,35.2,30.07,SE,126,7.0,21.0,46,0.01,,,0.02,meteohub,2013-01-27 03:32:00,
2013-01-26 19:37:00,43.9,35.2,30.07,NNE,13,14.0,21.0,46,0.01,,,0.02,meteohub,2013-01-27 03:37:00,
2013-01-26 19:42:00,43.9,35.2,30.07,West,280,10.0,19.0,46,0.00,,,0.02,meteohub,2013-01-27 03:42:00,
2013-01-26 19:47:00,43.9,35.2,30.07,SW,217,15.0,19.0,46,0.00,,,0.02,meteohub,2013-01-27 03:47:00,
2013-01-26 19:52:00,43.9,35.2,30.07,WSW,245,15.0,21.0,46,0.00,,,0.02,meteohub,2013-01-27 03:52:00,
2013-01-26 19:58:00,43.9,35.2,30.07,WSW,252,20.0,22.0,46,0.00,,,0.02,meteohub,2013-01-27 03:58:00,
2013-01-26 20:03:00,43.9,35.2,30.06,SW,236,18.0,27.0,46,0.00,,,0.02,meteohub,2013-01-27 04:03:00,
2013-01-26 20:08:00,43.9,35.2,30.06,SW,236,19.0,27.0,46,0.00,,,0.02,meteohub,2013-01-27 04:08:00,
2013-01-26 20:13:00,43.9,35.1,30.06,WSW,243,19.0,27.0,46,0.00,,,0.02,meteohub,2013-01-27 04:13:00,
2013-01-26 20:18:00,43.7,35.1,30.06,West,264,9.0,27.0,46,0.00,,,0.02,meteohub,2013-01-27 04:18:00,
2013-01-26 20:23:00,43.5,35.1,30.07,NW,314,18.0,27.0,46,0.00,,,0.02,meteohub,2013-01-27 04:23:00,
2013-01-26 20:28:00,43.5,35.1,30.07,West,267,15.0,27.0,46,0.00,,,0.02,meteohub,2013-01-27 04:28:00,
2013-01-26 20:33:00,43.3,35.1,30.07,West,266,23.0,27.0,46,0.00,,,0.02,meteohub,2013-01-27 04:33:00,
2013-01-26 20:38:00,43.2,35.1,30.07,SW,232,15.0,26.0,46,0.00,,,0.02,meteohub,2013-01-27 04:38:00,
2013-01-26 20:43:00,43.0,35.1,30.07,WSW,252,14.0,26.0,46,0.00,,,0.02,meteohub,2013-01-27 04:43:00,
2013-01-26 20:48:00,43.0,35.1,30.08,NW,305,13.0,23.0,46,0.00,,,0.02,meteohub,2013-01-27 04:48:00,
2013-01-26 20:53:00,43.2,35.1,30.08,WSW,246,17.0,23.0,46,0.00,,,0.02,meteohub,2013-01-27 04:53:00,
2013-01-26 20:59:00,43.2,35.1,30.08,West,269,14.0,23.0,46,0.00,,,0.02,meteohub,2013-01-27 04:59:00,
2013-01-26 21:02:00,43.3,35.1,30.08,SW,221,13.0,20.0,46,0.00,,,0.02,meteohub,2013-01-27 05:02:00,
2013-01-26 21:03:00,43.3,35.1,30.08,NW,323,6.0,20.0,46,0.00,,,0.02,meteohub,2013-01-27 05:03:00,
2013-01-26 21:08:00,43.7,35.1,30.08,NE,49,10.0,24.0,46,0.00,,,0.02,meteohub,2013-01-27 05:08:00,
2013-01-26 21:13:00,43.7,35.1,30.08,NNE,27,9.0,24.0,46,0.00,,,0.02,meteohub,2013-01-27 05:13:00,
2013-01-26 21:19:00,43.9,35.1,30.08,NNW,333,10.0,24.0,46,0.00,,,0.02,meteohub,2013-01-27 05:19:00,
2013-01-26 21:24:00,43.9,35.1,30.08,West,276,10.0,16.0,46,0.00,,,0.02,meteohub,2013-01-27 05:24:00,
2013-01-26 21:29:00,43.9,35.6,30.08,North,357,10.0,18.0,47,0.00,,,0.02,meteohub,2013-01-27 05:29:00,
2013-01-26 21:34:00,43.9,34.9,30.08,WSW,239,12.0,18.0,46,0.00,,,0.02,meteohub,2013-01-27 05:34:00,
2013-01-26 21:39:00,43.7,34.9,30.08,WNW,290,13.0,18.0,46,0.00,,,0.02,meteohub,2013-01-27 05:39:00,
2013-01-26 21:45:00,43.7,34.9,30.08,WSW,238,15.0,20.0,46,0.00,,,0.02,meteohub,2013-01-27 05:45:00,
2013-01-26 21:50:00,43.7,34.9,30.08,NW,308,11.0,20.0,46,0.00,,,0.02,meteohub,2013-01-27 05:50:00,
2013-01-26 21:55:00,43.7,35.4,30.09,North,349,14.0,20.0,47,0.01,,,0.03,meteohub,2013-01-27 05:55:00,
2013-01-26 22:00:00,43.7,35.4,30.08,West,281,10.0,17.0,47,0.01,,,0.03,meteohub,2013-01-27 06:00:00,
2013-01-26 22:05:00,43.5,35.4,30.09,West,262,11.0,19.0,47,0.01,,,0.03,meteohub,2013-01-27 06:05:00,
2013-01-26 22:10:00,43.5,35.4,30.08,WSW,252,8.0,19.0,47,0.01,,,0.03,meteohub,2013-01-27 06:10:00,
2013-01-26 22:15:00,43.5,35.4,30.08,West,274,7.0,22.0,47,0.01,,,0.03,meteohub,2013-01-27 06:15:00,
2013-01-26 22:20:00,43.3,35.4,30.08,West,264,11.0,24.0,47,0.01,,,0.03,meteohub,2013-01-27 06:20:00,
2013-01-26 22:26:00,43.3,35.4,30.08,NNE,18,12.0,24.0,47,0.01,,,0.03,meteohub,2013-01-27 06:26:00,
2013-01-26 22:31:00,43.3,35.4,30.08,NE,43,9.0,24.0,47,0.01,,,0.03,meteohub,2013-01-27 06:31:00,
2013-01-26 22:36:00,43.3,35.4,30.08,East,101,10.0,24.0,47,0.01,,,0.03,meteohub,2013-01-27 06:36:00,
2013-01-26 22:42:00,43.2,35.4,30.08,SSE,153,12.0,24.0,47,0.01,,,0.03,meteohub,2013-01-27 06:42:00,
2013-01-26 22:47:00,43.2,35.4,30.09,West,262,10.0,23.0,47,0.01,,,0.03,meteohub,2013-01-27 06:47:00,
2013-01-26 22:52:00,43.2,35.4,30.09,NNW,345,13.0,23.0,47,0.00,,,0.03,meteohub,2013-01-27 06:52:00,
2013-01-26 22:57:00,43.2,35.4,30.08,West,263,19.0,26.0,47,0.01,,,0.04,meteohub,2013-01-27 06:57:00,
2013-01-26 23:02:00,43.2,35.4,30.08,West,271,15.0,26.0,47,0.01,,,0.04,meteohub,2013-01-27 07:02:00,
2013-01-26 23:07:00,43.2,35.4,30.09,WSW,239,18.0,26.0,47,0.01,,,0.04,meteohub,2013-01-27 07:07:00,
2013-01-26 23:13:00,43.2,35.4,30.08,West,262,10.0,28.0,47,0.01,,,0.04,meteohub,2013-01-27 07:13:00,
2013-01-26 23:18:00,43.2,35.4,30.08,NNW,338,8.0,28.0,47,0.01,,,0.04,meteohub,2013-01-27 07:18:00,
2013-01-26 23:23:00,43.0,35.4,30.08,WNW,302,12.0,28.0,47,0.01,,,0.04,meteohub,2013-01-27 07:23:00,
2013-01-26 23:28:00,43.0,35.4,30.08,SSE,158,9.0,26.0,47,0.01,,,0.04,meteohub,2013-01-27 07:28:00,
2013-01-26 23:33:00,43.0,35.4,30.08,West,267,18.0,26.0,47,0.01,,,0.04,meteohub,2013-01-27 07:33:00,
2013-01-26 23:39:00,43.2,35.2,30.08,WSW,242,15.0,23.0,47,0.01,,,0.04,meteohub,2013-01-27 07:39:00,
2013-01-26 23:44:00,43.2,35.2,30.08,NW,323,9.0,24.0,47,0.01,,,0.04,meteohub,2013-01-27 07:44:00,
2013-01-26 23:50:00,43.2,35.2,30.08,WSW,252,12.0,24.0,47,0.01,,,0.04,meteohub,2013-01-27 07:50:00,
2013-01-26 23:55:00,43.2,35.2,30.08,NNW,333,13.0,22.0,47,0.01,,,0.04,meteohub,2013-01-27 07:55:00,